Regional Weather Roundup
Issued by NWS

Home | Current Version | Previous Version | Text Only | Print | Product List | Glossary Off
Versions: 1 2 3 4 5 6 7 8 9 10 11 12 13 14 15 16 17 18 19 20 21 22 23 24 25 26 27 28 29 30 31 32 33 34 35 36 37 38 39 40 41 42 43 44 45 46 47 48 49 50

000
ASUS43 KMKX 181359
RWRWI

WISCONSIN REGIONAL WEATHER ROUNDUP
NATIONAL WEATHER SERVICE MILWAUKEE/SULLIVAN WI
800 AM CST SUN FEB 18 2018

NOTE: "FAIR" INDICATES FEW OR NO CLOUDS BELOW 12,000 FEET WITH NO
SIGNIFICANT WEATHER AND/OR OBSTRUCTIONS TO VISIBILITY.

WIZ001-002-006>008-014>016-023>028-181500-
NORTHWEST WISCONSIN

CITY           SKY/WX    TMP DP  RH WIND       PRES   REMARKS
SUPERIOR ARPT  LGT SNOW  15   9  76 E3        30.01S
ASHLAND        CLOUDY    15   5  64 SE3       30.06R
HAYWARD        CLOUDY    16   5  62 VRB6      29.97F WCI   7
SIREN          FAIR      18   5  58 SE6       29.97F WCI   9
CUMBERLAND     CLOUDY    16   5  62 SE9       29.96F WCI   4
RICE LAKE      MOCLDY    17   7  66 E8G16     30.00F WCI   6
CHETEK         CLOUDY    17   7  66 SE7       29.99F WCI   7
LADYSMITH      CLOUDY    15   8  72 E6        30.04S WCI   7
EAU CLAIRE     NOT AVBL
MENOMONIE      CLOUDY    18  11  73 SE7       30.02S WCI   9
NEW RICHMOND   CLOUDY    20   7  56 SE10      29.97S WCI   9
OSCEOLA        CLOUDY    20   8  59 SE9       30.00R WCI  10
$$

WIZ003>005-009-010-017-018-181500-
NORTH CENTRAL WISCONSIN

CITY           SKY/WX    TMP DP  RH WIND       PRES   REMARKS
MANITOWISH WTR CLOUDY    11   5  76 S6        30.02R WCI   2
ARBOR VITAE    CLOUDY    13   8  79 CALM      30.02F
WOODRUFF       CLOUDY    13   8  79 CALM      30.02F
RHINELANDER    CLOUDY    12   8  84 SE3       30.04F
EAGLE RIVER    CLOUDY    11   5  77 CALM      30.04S
LAND O LAKES   CLOUDY     7   4  86 CALM      30.04F
PHILLIPS       CLOUDY    13   6  76 SE5       30.02S WCI   5
TOMAHAWK       CLOUDY    11   7  84 CALM      30.05F
MEDFORD        CLOUDY    13   7  76 S7        30.05R WCI   3
MERRILL        CLOUDY    11   8  88 SE3       30.07F
$$

WIZ029-030-035-036-043>047-181500-
CENTRAL WISCONSIN

CITY           SKY/WX    TMP DP  RH WIND       PRES   REMARKS
WAUSAU         CLOUDY    12   9  87 SE3       30.09R
MOSINEE        MOCLDY    12  10  92 S6        30.11S WCI   3
MARSHFIELD     CLOUDY    16  12  84 SE6       30.07R WCI   7
STEVENS POINT  CLOUDY    11  11  98 CALM      30.13R
WAUPACA        PTSUNNY   17  14  87 CALM      30.16R
WAUTOMA        CLOUDY    16  14  92 CALM      30.16R
WISC RAPIDS    CLOUDY    17  12  80 SE5       30.12S WCI  10
CAMP DOUGLAS   NOT AVBL
$$

WIZ011>013-019>022-031-037>040-048>050-181500-
NORTHEAST WISCONSIN

CITY           SKY/WX    TMP DP  RH WIND       PRES   REMARKS
ANTIGO         CLOUDY    11   8  89 SE5       30.07F WCI   3
SHAWANO        FAIR      17  14  88 CALM      30.15S
OCONTO         FAIR      13  11  92 CALM      30.17S
STURGEON BAY   FAIR      19  15  84 SW5       30.19R WCI  12
GREEN BAY      FAIR      16  13  88 S5        30.18R WCI   9
MANITOWOC      FAIR      23  21  92 S3        30.19S
APPLETON       PTSUNNY   18  16  93 CALM      30.15R
CLINTONVILLE   PTSUNNY   14  11  88 CALM      30.16R
OSHKOSH        CLOUDY    20  17  88 S6        30.16R WCI  12
$$

WIZ032>034-041-042-053>061-181500-
SOUTHWEST WISCONSIN

CITY           SKY/WX    TMP DP  RH WIND       PRES   REMARKS
LA CROSSE      FAIR      20  17  88 S7        30.09S WCI  11
SPARTA         FAIR      15  14  95 CALM      30.10S
VIROQUA        FAIR      21  21 100 SE12      30.06F WCI   9
BOSCOBEL       FAIR      16  13  88 CALM      30.15F
PRAIRIE DU CHI FAIR      19  17  91 E6        30.13F WCI  11
PLATTEVILLE    CLOUDY    15  15  98 CALM      30.16R
$$

WIZ056-057-062-063-064-067-068-181500-
SOUTH CENTRAL WISCONSIN

CITY           SKY/WX    TMP DP  RH WIND       PRES   REMARKS
REEDSBURG      FAIR      20  20 100 E3        30.12F
BARABOO/DELLS  FAIR      21  19  94 SE3       30.12F
LONE ROCK      NOT AVBL
MINERAL POINT  FOG       21  21 100 CALM      30.13R VSB 3/4
MADISON        PTSUNNY   20  19  96 SE3       30.16R
MIDDLETON      FAIR      22  20  94 CALM      30.15F
WATERTOWN      FAIR      18  18 100 CALM      30.18S
MONROE         FOG       16  14  93 SE5       30.15R VSB<1/4 WCI   9
JANESVILLE     NOT AVBL
$$

WIZ051-052-058>065-066-070>072-181500-
SOUTHEAST WISCONSIN

CITY           SKY/WX    TMP DP  RH WIND       PRES   REMARKS
MILWAUKEE      PTSUNNY   24  21  88 CALM      30.20F
WAUKESHA       SUNNY     19  18  93 SE3       30.18F
MILWAUKEE/TIMM SUNNY     19  18  93 CALM      30.21S
RACINE         FAIR      24  21  88 S5        30.23F WCI  18
BURLINGTON     FOG       18  16  90 CALM      30.20R VSB 1
KENOSHA        FAIR      23  20  88 S6        30.22S FOG     WCI  16
FOND DU LAC    PTSUNNY   20  16  84 S5        30.17S WCI  13
SHEBOYGAN      FAIR      20  19  96 CALM      30.18F
WEST BEND      FAIR      19  19 100 SW6       30.19R WCI  11
JUNEAU         FOG       16  14  93 E6        30.17F VSB 3/4 WCI   7
$$

LSZ147-162-181500-
LAKE SUPERIOR

STATION/POSITION TIME  TEMP    WIND        PRES    WAVE
                       AIR SEA DIR/SP/G            HT/PER
                 (UTC) (F)     (DEG/KT/KT) (MB)    (FT/S)
DEVILS ISLAND    1300   16     150/  7/  8 1018.9F
SAXON HARBOR     1340   17     190/  2/  5 1017.6S
$$

LMZ867-665-643>646-181500-
LAKE MICHIGAN

STATION/POSITION TIME  TEMP    WIND        PRES    WAVE
                       AIR SEA DIR/SP/G            HT/PER
                 (UTC) (F)     (DEG/KT/KT) (MB)    (FT/S)
NORTHPORT PIER   1340   20                 1021.3S
KEWAUNEE LAKESHO 1330   19     290/  4/  5 1021.1R
SHEBOYGAN LAKESH 1300   21     240/  8/  8 1023.5F
PORT WASHINGTON  1340   24     260/  5/  7 1024.0S
MILWAUKEE LAKESH 1330   24     220/  6/  6   N/A
KENOSHA   LAKESH 1300   22     240/  3/  5 1023.7
$$

TC  - TEMPERATURE IN CELSIUS
VSB - VISIBILITY IN STATUTE MILES
WCI - WIND CHILL INDEX
HX  - HEAT INDEX





USA.gov is the U.S. government's official web portal to all federal, state and local government web resources and services.